FW1041 Weather Reports


time (UTC)temp
C
wind
direction
speed
KPH
gust
KPH
rain 1hr
cm
rain 24hr
cm
rain mn
cm
humidity
%
barometer
mb
20260507154011 26 247 8.0 11.3 0.00 0.00 0.00 12 1017.3
20260507153010 26 3 3.2 8.0 0.00 0.00 0.00 12 1017.3
20260507152510 25 259 6.4 8.0 0.00 0.00 0.00 15 1017.3
20260507152010 25 249 6.4 8.0 0.00 0.00 0.00 15 1017.3
20260507151510 25 297 3.2 9.7 0.00 0.00 0.00 17 1017.3
20260507151015 25 252 8.0 9.7 0.00 0.00 0.00 16 1017.3
20260507150511 25 257 4.8 9.7 0.00 0.00 0.00 13 1017.3
20260507145511 24 267 3.2 11.3 0.00 0.00 0.00 17 1017.3
20260507145011 24 244 3.2 14.5 0.00 0.00 0.00 15 1017.3
20260507144511 25 330 6.4 20.9 0.00 0.00 0.00 15 1017.3
20260507144011 25 306 8.0 20.9 0.00 0.00 0.00 11 1017.4
20260507143011 24 325 11.3 20.9 0.00 0.00 0.00 11 1017.4
20260507141011 23 306 3.2 19.3 0.00 0.00 0.00 13 1017.4
20260507140512 22 302 1.6 14.5 0.00 0.00 0.00 14 1017.4
20260507140012 22 78 3.2 14.5 0.00 0.00 0.00 14 1017.4
20260507135511 21 184 1.6 8.0 0.00 0.00 0.00 19 1017.4
20260507135011 21 89 1.6 8.0 0.00 0.00 0.00 21 1017.4
20260507134511 21 70 1.6 6.4 0.00 0.00 0.00 22 1017.4
20260507133511 20 76 3.2 4.8 0.00 0.00 0.00 23 1017.3
20260507133011 20 61 1.6 6.4 0.00 0.00 0.00 25 1017.3
20260507132511 21 140 0.0 6.4 0.00 0.00 0.00 23 1017.1
20260507132011 21 274 3.2 6.4 0.00 0.00 0.00 23 1017.1
20260507131511 21 150 4.8 6.4 0.00 0.00 0.00 22 1017.1
20260507130511 20 138 3.2 11.3 0.00 0.00 0.00 22 1017.2
20260507125510 20 340 4.8 6.4 0.00 0.00 0.00 25 1016.9
20260507125011 20 101 4.8 9.7 0.00 0.00 0.00 24 1016.9
20260507124511 20 114 6.4 9.7 0.00 0.00 0.00 23 1016.9
20260507124011 20 79 3.2 9.7 0.00 0.00 0.00 23 1016.9
20260507123510 20 94 6.4 9.7 0.00 0.00 0.00 25 1016.9
20260507123010 19 196 0.0 4.8 0.00 0.00 0.00 24 1016.9
20260507122511 19 288 1.6 6.4 0.00 0.00 0.00 25 1016.9
20260507121512 19 6 1.6 3.2 0.00 0.00 0.00 25 1016.9
20260507120511 19 340 0.0 3.2 0.00 0.00 0.00 26 1016.9
20260507115511 20 269 1.6 4.8 0.00 0.00 0.00 24 1016.9
20260507115011 20 278 1.6 6.4 0.00 0.00 0.00 23 1016.9
20260507114511 20 278 1.6 6.4 0.00 0.00 0.00 23 1016.9
20260507114012 20 321 1.6 4.8 0.00 0.00 0.00 23 1016.9
20260507113511 20 296 3.2 8.0 0.00 0.00 0.00 23 1016.9
20260507113011 20 359 1.6 8.0 0.00 0.00 0.00 24 1016.9
20260507112511 20 335 4.8 8.0 0.00 0.00 0.00 24 1017.0
20260507111511 20 310 3.2 8.0 0.00 0.00 0.00 25 1017.0
20260507111011 20 317 4.8 9.7 0.00 0.00 0.00 24 1017.2
20260507110511 20 340 4.8 9.7 0.00 0.00 0.00 24 1017.2
20260507110011 20 318 3.2 6.4 0.00 0.00 0.00 23 1017.2
20260507105511 20 295 4.8 4.8 0.00 0.00 0.00 23 1017.4
20260507105010 21 291 3.2 4.8 0.00 0.00 0.00 22 1017.4
20260507104511 20 269 3.2 4.8 0.00 0.00 0.00 22 1017.4
20260507103511 20 293 1.6 6.4 0.00 0.00 0.00 23 1017.4
20260507103011 20 319 1.6 6.4 0.00 0.00 0.00 24 1017.4
20260507102510 19 295 4.8 4.8 0.00 0.00 0.00 24 1017.5
20260507101512 19 38 1.6 6.4 0.00 0.00 0.00 24 1017.5
20260507101012 19 40 3.2 6.4 0.00 0.00 0.00 24 1017.6
20260507100511 19 275 3.2 4.8 0.00 0.00 0.00 24 1017.6
20260507100011 19 340 1.6 4.8 0.00 0.00 0.00 24 1017.6
20260507095010 19 315 0.0 3.2 0.00 0.00 0.00 24 1017.7
20260507094010 19 335 1.6 3.2 0.00 0.00 0.00 24 1017.9
20260507093511 19 335 0.0 3.2 0.00 0.00 0.00 24 1017.9
20260507093010 19 330 0.0 6.4 0.00 0.00 0.00 24 1017.9
20260507092011 20 30 4.8 6.4 0.00 0.00 0.00 23 1017.9
20260507091513 20 324 1.6 6.4 0.00 0.00 0.00 23 1017.9
20260507091013 20 344 3.2 6.4 0.00 0.00 0.00 23 1018.1
20260507090010 20 335 1.6 6.4 0.00 0.00 0.00 23 1018.1
20260507085510 20 305 4.8 8.0 0.00 0.00 0.00 23 1018.1
20260507085010 20 324 1.6 8.0 0.00 0.00 0.00 23 1018.1
20260507084510 20 307 4.8 8.0 0.00 0.00 0.00 24 1018.1
20260507083510 20 310 0.0 4.8 0.00 0.00 0.00 24 1018.1
20260507083010 20 313 0.0 3.2 0.00 0.00 0.00 24 1018.1
20260507082510 20 335 0.0 3.2 0.00 0.00 0.00 25 1018.3
20260507082011 20 335 0.0 3.2 0.00 0.00 0.00 25 1018.3
20260507081512 20 340 1.6 4.8 0.00 0.00 0.00 25 1018.3
20260507081011 20 330 0.0 6.4 0.00 0.00 0.00 24 1018.2
20260507080511 20 335 3.2 6.4 0.00 0.00 0.00 24 1018.2
20260507080012 20 325 4.8 6.4 0.00 0.00 0.00 23 1018.2
20260507075511 20 335 0.0 4.8 0.00 0.00 0.00 24 1018.2
20260507075011 21 14 3.2 4.8 0.00 0.00 0.00 23 1018.2
20260507074511 21 9 3.2 4.8 0.00 0.00 0.00 22 1018.2
20260507074013 21 359 1.6 4.8 0.00 0.00 0.00 22 1018.2
20260507073011 22 319 1.6 4.8 0.00 0.00 0.00 21 1018.2
20260507072511 22 292 0.0 11.3 0.00 0.00 0.00 20 1018.2
20260507071511 22 283 4.8 11.3 0.00 0.00 0.00 20 1018.2
20260507071011 22 335 1.6 9.7 0.00 0.00 0.00 20 1018.3
20260507070511 22 311 3.2 9.7 0.00 0.00 0.00 20 1018.3
20260507070013 22 292 3.2 8.0 0.00 0.00 0.00 20 1018.3
20260507065012 22 259 1.6 8.0 0.00 0.00 0.00 20 1018.2
20260507064511 22 306 1.6 6.4 0.00 0.00 0.00 20 1018.2
20260507064011 22 279 3.2 6.4 0.00 0.00 0.00 20 1018.2
20260507063511 22 266 3.2 9.7 0.00 0.00 0.00 20 1018.2
20260507063011 22 302 3.2 9.7 0.00 0.00 0.00 21 1018.2
20260507062511 22 325 3.2 4.8 0.00 0.00 0.00 21 1018.2
20260507062011 22 313 3.2 4.8 0.00 0.00 0.00 21 1018.2
20260507061012 22 308 1.6 6.4 0.00 0.00 0.00 21 1018.2
20260507060511 22 289 3.2 4.8 0.00 0.00 0.00 20 1018.2
20260507055513 22 302 1.6 6.4 0.00 0.00 0.00 22 1018.2
20260507055011 22 323 1.6 6.4 0.00 0.00 0.00 21 1018.2
20260507054511 22 293 1.6 4.8 0.00 0.00 0.00 21 1018.2
20260507054011 23 313 1.6 6.4 0.00 0.00 0.00 21 1018.1
20260507053512 23 293 4.8 6.4 0.00 0.00 0.00 21 1018.1
20260507053010 23 315 4.8 4.8 0.00 0.00 0.00 20 1018.1
20260507052510 23 297 3.2 6.4 0.00 0.00 0.00 20 1018.2
20260507051511 23 279 3.2 6.4 0.00 0.00 0.00 20 1018.2
20260507050512 23 295 3.2 8.0 0.00 0.00 0.00 21 1018.2
20260507050010 23 315 3.2 6.4 0.00 0.00 0.00 21 1018.2
20260507045011 23 284 3.2 6.4 0.00 0.00 0.00 21 1018.2
20260507044511 23 275 1.6 6.4 0.00 0.00 0.00 20 1018.2
20260507044011 23 298 3.2 9.7 0.00 0.00 0.00 21 1018.0
20260507043510 23 281 3.2 9.7 0.00 0.00 0.00 21 1018.0
20260507043012 23 284 6.4 8.0 0.00 0.00 0.00 21 1018.0
20260507042010 23 284 4.8 9.7 0.00 0.00 0.00 21 1017.7
20260507041511 23 275 3.2 9.7 0.00 0.00 0.00 21 1017.7
20260507041011 23 286 3.2 8.0 0.00 0.00 0.00 21 1017.6
20260507040511 23 256 4.8 6.4 0.00 0.00 0.00 21 1017.6
20260507040012 23 290 4.8 6.4 0.00 0.00 0.00 25 1017.6
20260507035011 23 286 4.8 4.8 0.00 0.00 0.00 21 1017.5
20260507034511 23 286 3.2 4.8 0.00 0.00 0.00 21 1017.5
20260507034011 23 269 3.2 4.8 0.00 0.00 0.00 21 1017.2
20260507033511 23 267 0.0 4.8 0.00 0.00 0.00 21 1017.2
20260507033012 23 269 3.2 3.2 0.00 0.00 0.00 21 1017.2
20260507032511 24 269 0.0 1.6 0.00 0.00 0.00 21 1017.1
20260507032010 24 269 0.0 1.6 0.00 0.00 0.00 21 1017.1
20260507031511 24 269 0.0 3.2 0.00 0.00 0.00 20 1017.1
20260507031011 24 269 0.0 3.2 0.00 0.00 0.00 20 1016.9
20260507030511 24 263 0.0 3.2 0.00 0.00 0.00 20 1016.9
20260507030012 24 263 0.0 1.6 0.00 0.00 0.00 20 1016.9
20260507025512 25 263 0.0 1.6 0.00 0.00 0.00 20 1016.6
20260507025011 25 263 0.0 3.2 0.00 0.00 0.00 20 1016.6
20260507024510 25 263 0.0 3.2 0.00 0.00 0.00 19 1016.6
20260507024012 25 263 0.0 3.2 0.00 0.00 0.00 19 1016.5
20260507023011 25 263 0.0 1.6 0.00 0.00 0.00 19 1016.5
20260507022511 25 263 0.0 3.2 0.00 0.00 0.00 18 1016.5
20260507021512 25 215 1.6 1.6 0.00 0.00 0.00 18 1016.5
20260507021010 26 184 0.0 4.8 0.00 0.00 0.00 18 1016.4
20260507020511 26 182 1.6 6.4 0.00 0.00 0.00 18 1016.4
20260507015511 26 182 0.0 16.1 0.00 0.00 0.00 17 1016.3
20260507015011 26 204 3.2 16.1 0.00 0.00 0.00 17 1016.3
20260507014511 26 181 1.6 9.7 0.00 0.00 0.00 18 1016.3
20260507014011 26 173 3.2 11.3 0.00 0.00 0.00 17 1016.1
20260507013511 26 165 3.2 11.3 0.00 0.00 0.00 17 1016.1
20260507013011 26 176 3.2 8.0 0.00 0.00 0.00 17 1016.1
20260507012512 26 146 6.4 8.0 0.00 0.00 0.00 17 1016.1
20260507012011 26 186 3.2 6.4 0.00 0.00 0.00 17 1016.1
20260507011512 26 175 3.2 8.0 0.00 0.00 0.00 17 1016.1
20260507010511 26 196 3.2 11.3 0.00 0.00 0.00 17 1016.1
20260507010011 26 197 0.0 11.3 0.00 0.00 0.00 17 1016.1
20260507005511 27 314 4.8 14.5 0.00 0.00 0.00 17 1016.1
20260507005011 27 257 8.0 14.5 0.00 0.00 0.00 17 1016.1
20260507004512 27 229 1.6 14.5 0.00 0.00 0.00 17 1016.1
20260507004011 27 164 9.7 14.5 0.00 0.00 0.00 16 1016.1
20260507003511 27 181 3.2 14.5 0.00 0.00 0.00 16 1016.1
20260507003011 27 241 3.2 14.5 0.00 0.00 0.00 16 1016.1
20260507002512 27 252 4.8 8.0 0.00 0.00 0.00 16 1016.1
20260507002012 27 214 0.0 9.7 0.00 0.00 0.00 16 1016.1
20260507001512 27 201 1.6 16.1 0.00 0.00 0.00 16 1016.1
20260507001011 27 215 3.2 16.1 0.00 0.00 0.00 16 1015.1
20260507000511 27 188 3.2 9.7 0.00 0.00 0.00 17 1015.1
20260507000011 27 155 6.4 19.3 0.00 0.00 0.00 17 1015.1
20260506235511 27 183 3.2 19.3 0.00 0.00 0.00 17 1015.2
20260506235011 27 205 3.2 19.3 0.00 0.00 0.00 17 1015.2
20260506234511 27 161 6.4 19.3 0.00 0.00 0.00 17 1015.2
20260506233512 27 168 1.6 11.3 0.00 0.00 0.00 17 1015.2
20260506233011 27 142 4.8 11.3 0.00 0.00 0.00 16 1015.2
20260506232511 27 236 1.6 14.5 0.00 0.00 0.00 17 1015.4
20260506232011 27 279 6.4 14.5 0.00 0.00 0.00 16 1015.4
20260506231511 27 155 3.2 14.5 0.00 0.00 0.00 17 1015.4
20260506231011 27 244 3.2 14.5 0.00 0.00 0.00 17 1015.7
20260506230511 27 323 4.8 11.3 0.00 0.00 0.00 17 1015.7
20260506230010 27 225 9.7 14.5 0.00 0.00 0.00 17 1015.7
20260506225510 27 171 3.2 14.5 0.00 0.00 0.00 17 1015.7
20260506224511 27 200 4.8 16.1 0.00 0.00 0.00 17 1015.7
20260506224012 27 253 3.2 16.1 0.00 0.00 0.00 17 1015.9
20260506223511 27 275 6.4 14.5 0.00 0.00 0.00 17 1015.9
20260506223011 27 284 11.3 12.9 0.00 0.00 0.00 17 1015.9
20260506222511 26 202 1.6 17.7 0.00 0.00 0.00 18 1016.1
20260506222011 26 103 8.0 17.7 0.00 0.00 0.00 17 1016.1
20260506221512 26 161 11.3 17.7 0.00 0.00 0.00 17 1016.1
20260506221011 26 159 6.4 17.7 0.00 0.00 0.00 18 1016.3
20260506220511 27 261 14.5 16.1 0.00 0.00 0.00 18 1016.3
20260506220012 27 270 3.2 16.1 0.00 0.00 0.00 17 1016.3
20260506215511 26 261 11.3 14.5 0.00 0.00 0.00 18 1016.6
20260506215011 26 139 3.2 6.4 0.00 0.00 0.00 18 1016.6
20260506214511 26 202 4.8 9.7 0.00 0.00 0.00 18 1016.6
20260506213011 26 173 3.2 11.3 0.00 0.00 0.00 18 1016.8
20260506212511 26 209 4.8 11.3 0.00 0.00 0.00 19 1017.1
20260506212011 26 179 1.6 17.7 0.00 0.00 0.00 19 1017.1
20260506211011 26 121 3.2 16.1 0.00 0.00 0.00 19 1017.4
20260506210511 25 167 6.4 14.5 0.00 0.00 0.00 18 1017.4
20260506210011 26 234 6.4 11.3 0.00 0.00 0.00 18 1017.4
20260506205511 26 180 8.0 11.3 0.00 0.00 0.00 20 1017.6
20260506204011 25 165 11.3 16.1 0.00 0.00 0.00 19 1017.8
20260506203511 25 161 9.7 16.1 0.00 0.00 0.00 19 1017.8
20260506203011 25 78 6.4 17.7 0.00 0.00 0.00 20 1017.8
20260506202511 25 148 4.8 17.7 0.00 0.00 0.00 19 1018.0
20260506202011 25 159 9.7 14.5 0.00 0.00 0.00 19 1018.0
20260506201512 25 165 12.9 14.5 0.00 0.00 0.00 20 1018.0
20260506201010 25 273 4.8 16.1 0.00 0.00 0.00 20 1018.1
20260506200510 25 225 6.4 16.1 0.00 0.00 0.00 19 1018.1
20260506200010 25 221 1.6 14.5 0.00 0.00 0.00 20 1018.1
20260506195510 25 255 4.8 9.7 0.00 0.00 0.00 20 1018.2
20260506195011 24 265 4.8 9.7 0.00 0.00 0.00 20 1018.2
20260506194511 24 82 3.2 20.9 0.00 0.00 0.00 20 1018.2
20260506194010 24 126 8.0 20.9 0.00 0.00 0.00 20 1018.5
20260506193511 25 167 8.0 17.7 0.00 0.00 0.00 20 1018.5
20260506192510 24 262 3.2 11.3 0.00 0.00 0.00 21 1018.5
20260506192010 24 144 4.8 19.3 0.00 0.00 0.00 20 1018.5
20260506191510 24 163 3.2 19.3 0.00 0.00 0.00 21 1018.5
20260506191011 24 173 8.0 14.5 0.00 0.00 0.00 21 1018.6
20260506190510 23 252 9.7 17.7 0.00 0.00 0.00 22 1018.6
20260506185011 23 212 3.2 16.1 0.00 0.00 0.00 23 1018.8
20260506184012 23 157 4.8 19.3 0.00 0.00 0.00 23 1019.0
20260506183511 23 262 1.6 19.3 0.00 0.00 0.00 23 1019.0
20260506183011 23 283 16.1 12.9 0.00 0.00 0.00 24 1019.0
20260506182511 23 273 6.4 11.3 0.00 0.00 0.00 24 1019.2
20260506181511 23 241 4.8 11.3 0.00 0.00 0.00 24 1019.2
20260506181011 23 231 3.2 14.5 0.00 0.00 0.00 24 1019.2
20260506180511 22 215 1.6 14.5 0.00 0.00 0.00 25 1019.2
20260506180011 23 150 6.4 11.3 0.00 0.00 0.00 25 1019.2
20260506175511 22 226 4.8 11.3 0.00 0.00 0.00 26 1019.5
20260506175011 22 263 1.6 8.0 0.00 0.00 0.00 26 1019.5
20260506174011 22 232 1.6 11.3 0.00 0.00 0.00 25 1019.6
20260506173511 22 288 8.0 9.7 0.00 0.00 0.00 26 1019.6
20260506172511 21 340 1.6 11.3 0.00 0.00 0.00 26 1019.5
20260506171511 21 238 3.2 9.7 0.00 0.00 0.00 27 1019.5
20260506171011 21 206 1.6 8.0 0.00 0.00 0.00 27 1019.4
20260506170511 21 268 0.0 11.3 0.00 0.00 0.00 28 1019.4
20260506170011 21 287 6.4 11.3 0.00 0.00 0.00 28 1019.4
20260506164511 21 80 8.0 14.5 0.00 0.00 0.00 31 1019.3
20260506164011 21 79 6.4 11.3 0.00 0.00 0.00 28 1019.3
20260506163511 20 132 4.8 11.3 0.00 0.00 0.00 28 1019.3
20260506163011 20 272 6.4 11.3 0.00 0.00 0.00 28 1019.3
20260506162511 20 159 3.2 8.0 0.00 0.00 0.00 28 1019.2
20260506162011 20 261 8.0 8.0 0.00 0.00 0.00 27 1019.2
20260506161511 20 212 1.6 8.0 0.00 0.00 0.00 28 1019.2
20260506161011 20 107 3.2 8.0 0.00 0.00 0.00 28 1019.2
20260506160511 20 165 3.2 9.7 0.00 0.00 0.00 29 1019.2
20260506160011 20 67 4.8 9.7 0.00 0.00 0.00 29 1019.2
20260506155010 20 281 1.6 4.8 0.00 0.00 0.00 29 1019.2
20260506154510 20 219 1.6 6.4 0.00 0.00 0.00 30 1019.2